Mytilini, Greece

3:57 PM EET on December 17, 2017 (GMT +0200)
Odysseas Elytis

Weather History for LGMT - December, 2017

Change the Weather History Date:

Thursday, December 7, 2017

  Actual Average Record
Temperature  
Mean Temperature 49 °F -  
Max Temperature 57 °F 56 °F 68 °F (2008)
Min Temperature 41 °F 47 °F 37 °F (2013)
Degree Days  
Heating Degree Days 16    
Moisture  
Dew Point 35 °F    
Average Humidity 56    
Maximum Humidity 76    
Minimum Humidity 33    
Precipitation  
Precipitation 0.00 in 0.19 in - ()
Sea Level Pressure  
Sea Level Pressure 30.34 in    
Wind  
Wind Speed 5 mph ()    
Max Wind Speed 9 mph    
Max Gust Speed -    
Visibility 6.6 miles    
Events      
Averages and records for this station are not official NWS values.
T = Trace of Precipitation, MM = Missing Value Source: Averaged Metar Reports

Daily Weather History Graph

Daily Weather History Graph

Search for Another Location

Airport or City:

Trip Planner

Search our weather history database for the weather conditions in past years. The results will help you decide how hot, cold, wet, or windy it might be!

Date:

Astronomy

Dec. 07, 2017 Rise Set
Actual Time 7:19 AM EET 4:50 PM EET
Civil Twilight 6:49 AM EET 5:20 PM EET
Nautical Twilight 6:16 AM EET 5:54 PM EET
Astronomical Twilight 5:43 AM EET 6:26 PM EET
Moon 9:14 PM EET (12/7) 10:44 AM EET (12/7)
Length of Visible Light 10h 31m
Length of Day
9h 31m
Waning Gibbous, 81% of the Moon is Illuminated
Dec 7
Waning Gibbous
Dec 10
Last Quarter
Dec 18
New
Dec 26
First Quarter
Jan 2
Full

Hourly Weather History & Observations

Time (EET) Temp. Windchill Dew Point Humidity Pressure Visibility Wind Dir Wind Speed Gust Speed Precip Events Conditions
6:20 AM 46.4 °F 45.2 °F 35.6 °F 66% 30.33 in 6.2 mi Variable 3.5 mph - N/A   Partly Cloudy
6:50 AM 42.8 °F 41.1 °F 35.6 °F 76% 30.33 in 6.2 mi Variable 3.5 mph - N/A   Partly Cloudy
7:20 AM 42.8 °F 41.1 °F 35.6 °F 76% 30.33 in 6.2 mi Variable 3.5 mph - N/A   Partly Cloudy
7:50 AM 42.8 °F 41.1 °F 35.6 °F 76% 30.33 in 6.2 mi Variable 3.5 mph - N/A   Partly Cloudy
8:00 AM 43 °F - 35 °F 63% 30.35 in 9 mi SSW 3.5 mph - -   Scattered Clouds
8:20 AM 44.6 °F 42.2 °F 35.6 °F 71% 30.33 in 6.2 mi SSW 4.6 mph - N/A   Partly Cloudy
8:50 AM 46.4 °F 44.3 °F 32.0 °F 57% 30.33 in 6.2 mi South 4.6 mph - N/A   Partly Cloudy
9:20 AM 48.2 °F - 32.0 °F 54% 30.33 in 6.2 mi SSE 9.2 mph - N/A   Partly Cloudy
9:50 AM 51.8 °F - 33.8 °F 50% 30.36 in 6.2 mi South 8.1 mph - N/A   Partly Cloudy
10:20 AM 51.8 °F - 33.8 °F 50% 30.36 in 6.2 mi South 9.2 mph - N/A   Partly Cloudy
10:50 AM 53.6 °F - 33.8 °F 47% 30.36 in 6.2 mi SSE 8.1 mph - N/A   Partly Cloudy
11:00 AM 54 °F - 34 °F 34% 30.38 in 9 mi SSE 8.1 mph - -   Scattered Clouds
11:20 AM 53.6 °F - 33.8 °F 47% 30.36 in 6.2 mi South 8.1 mph - N/A   Partly Cloudy
11:50 AM 55.4 °F - 35.6 °F 47% 30.36 in 6.2 mi South 6.9 mph - N/A   Partly Cloudy
12:20 PM 55.4 °F - 35.6 °F 47% 30.36 in 6.2 mi SSE 6.9 mph - N/A   Partly Cloudy
12:50 PM 57.2 °F - 33.8 °F 41% 30.33 in - SSE 8.1 mph - N/A   Clear
1:20 PM 57.2 °F - 33.8 °F 41% 30.33 in - SSE 8.1 mph - N/A   Clear
1:50 PM 57.2 °F - 35.6 °F 44% 30.33 in - SE 8.1 mph - N/A   Clear
2:00 PM 56 °F - 35 °F 33% 30.35 in 9 mi SE 8.1 mph - -  
2:20 PM 57.2 °F - 35.6 °F 44% 30.33 in - SE 8.1 mph - N/A   Clear
2:50 PM 57.2 °F - 37.4 °F 48% 30.33 in - SSE 4.6 mph - N/A   Clear
3:20 PM 57.2 °F - 37.4 °F 48% 30.33 in - SSE 4.6 mph - N/A   Clear
3:50 PM 57.2 °F - 41.0 °F 55% 30.33 in - SSE 5.8 mph - N/A   Clear
4:50 PM 53.6 °F - 37.4 °F 54% 30.33 in - SSW 4.6 mph - N/A   Clear
5:00 PM 54 °F - 37 °F 41% 30.33 in 6 mi SSW 4.6 mph - -  
5:20 PM 51.8 °F - 37.4 °F 58% 30.33 in - SSW 4.6 mph - N/A   Clear
5:50 PM 50.0 °F - 33.8 °F 54% 30.33 in - WSW 4.6 mph - N/A   Clear
6:20 PM 50.0 °F - 33.8 °F 54% 30.33 in - WSW 4.6 mph - N/A   Clear
6:50 PM 48.2 °F - 35.6 °F 62% 30.33 in - SSW 4.6 mph - N/A   Clear
7:20 PM 48.2 °F - 35.6 °F 62% 30.33 in - SSW 4.6 mph - N/A   Clear
7:50 PM 46.4 °F 44.3 °F 35.6 °F 66% 30.33 in - SSW 4.6 mph - N/A   Clear
8:00 PM 47 °F - 36 °F 55% 30.35 in 6 mi SSW 4.6 mph - -  
8:20 PM 46.4 °F 44.3 °F 35.6 °F 66% 30.33 in - SSW 4.6 mph - N/A   Clear
8:50 PM 46.4 °F 45.2 °F 37.4 °F 71% 30.33 in - Variable 3.5 mph - N/A   Clear
9:20 PM 46.4 °F 45.2 °F 37.4 °F 71% 30.33 in 6.2 mi Variable 3.5 mph - N/A   Partly Cloudy
9:50 PM 46.4 °F 44.3 °F 35.6 °F 66% 30.33 in 6.2 mi SSW 4.6 mph - N/A   Partly Cloudy
10:20 PM 46.4 °F 44.3 °F 35.6 °F 66% 30.33 in 6.2 mi SSW 4.6 mph - N/A   Partly Cloudy